Theta_e
339 339 339 339 335 330 328 325 323 321 320 319 319 319 320 321 323 327 334 342 344 344 344 344 343 343 340 337 338 342 344 345 344 342 344 342 340 343 342 344 344 344 344
338 339 338 333 327 322 320 317 315 313 313 314 316 317 317 318 318 318 318 320 323 329 336 342 342 342 343 343 341 340 338 341 344 344 344 345 343 340 344 345 345 344 344
339 336 331 325 321 316 313 312 314 317 319 319 320 320 321 322 322 322 321 321 321 320 319 319 324 334 341 341 342 342 341 338 340 340 337 340 342 341 339 341 341 344 343
332 329 324 319 314 313 315 317 319 320 319 319 320 320 320 320 321 322 322 321 321 322 323 324 323 320 322 333 339 340 341 342 339 339 337 334 330 331 330 339 341 338 341
329 323 316 313 316 317 318 319 318 315 315 315 316 317 317 318 318 318 320 321 322 322 322 322 325 323 321 322 331 335 337 340 341 340 339 339 337 341 340 340 342 341 342
318 314 315 317 316 315 315 314 314 314 314 314 314 314 315 315 315 315 316 316 319 321 321 321 323 325 326 328 330 332 334 335 335 340 340 341 341 337 339 337 338 338 338
314 314 314 313 313 313 313 313 312 309 307 306 306 305 305 304 305 307 309 313 315 316 318 320 322 323 324 324 325 327 330 332 333 335 337 339 340 340 336 334 338 338 339
313 312 312 309 306 312 313 310 307 307 307 307 306 306 305 305 304 303 304 309 312 314 317 318 321 322 322 323 324 325 325 326 328 330 332 332 338 337 337 336 336 337 338
311 310 308 306 306 310 310 307 308 308 308 308 307 307 306 306 305 304 303 305 308 312 314 317 318 319 320 321 322 324 325 325 326 325 327 331 332 334 337 337 337 338 337
310 311 309 308 307 307 307 309 309 310 310 310 309 308 308 307 306 305 304 304 305 311 313 313 315 316 318 319 320 321 322 323 323 323 323 323 326 331 332 335 336 338 338
308 308 309 307 309 309 309 309 309 309 309 309 310 311 309 308 308 306 305 305 304 309 310 312 313 314 316 318 320 320 321 323 324 324 325 327 328 329 330 333 334 335 336
308 309 310 310 311 311 312 311 310 310 310 310 308 310 311 308 308 308 306 306 305 308 308 308 308 311 312 313 315 317 319 321 323 323 325 327 328 327 327 328 331 333 335
311 312 312 312 311 310 309 310 310 310 310 310 311 311 312 309 308 308 307 306 307 306 305 304 304 306 308 309 310 311 313 315 317 319 321 322 322 325 327 328 329 330 332
310 311 312 310 310 309 309 309 310 311 312 312 311 311 311 312 311 308 307 307 307 309 307 309 307 307 307 308 308 307 307 308 310 313 314 317 320 322 324 327 328 329 330
309 311 310 310 309 310 311 311 311 310 310 310 310 310 310 311 310 307 308 308 307 308 307 309 309 309 309 309 308 308 307 306 305 306 309 312 314 317 321 323 325 327 328
310 310 310 311 312 312 312 312 312 312 311 311 310 311 310 310 310 308 307 307 307 307 308 308 308 309 309 309 309 309 308 308 307 306 305 305 310 312 315 317 320 322 324
310 311 312 312 312 313 313 313 313 313 312 314 313 311 311 311 310 310 308 308 307 308 309 308 307 307 307 307 307 308 308 308 308 307 305 303 304 309 310 313 315 317 319
310 311 314 314 315 315 314 314 314 312 311 312 312 312 312 312 312 312 310 309 311 310 310 309 309 308 307 306 305 305 306 306 307 307 305 304 301 303 308 309 311 313 315
311 313 314 314 315 315 314 312 313 312 313 312 313 313 313 313 312 312 312 311 310 310 310 309 308 308 308 307 306 306 305 305 306 306 304 303 303 302 303 307 309 310 313
312 313 314 314 314 315 315 313 316 317 317 316 314 314 315 315 314 314 312 312 311 310 310 310 309 308 308 308 307 307 306 306 305 304 304 303 303 302 302 303 306 308 309
314 315 313 313 314 315 315 316 316 317 317 316 315 316 315 314 314 314 313 312 312 312 312 310 308 308 307 307 307 306 306 306 304 304 303 302 302 302 301 301 303 305 307
314 313 313 314 315 315 315 315 314 314 314 317 316 316 312 312 314 315 315 313 312 312 311 311 309 309 308 308 306 306 306 306 303 303 302 301 301 301 301 301 301 303 306
314 315 315 315 316 316 316 316 315 315 316 314 313 312 311 311 313 315 314 313 312 312 311 311 309 309 309 308 307 305 304 302 301 299 299 299 299 299 300 300 301 302 303
315 315 316 316 316 316 316 316 316 315 311 311 311 310 310 311 313 313 312 311 311 311 309 309 309 309 307 304 302 301 300 299 298 298 299 299 298 298 299 300 300 301 302
317 317 317 317 316 316 316 313 313 311 310 309 308 308 308 309 308 307 307 307 306 304 303 302 301 300 299 298 297 296 296 296 296 297 298 298 299 299 299 299 300 300 301
318 318 317 317 316 313 310 310 310 309 308 307 306 306 304 304 302 302 301 301 300 299 299 298 297 296 296 297 298 298 298 298 298 297 297 298 298 299 299 299 299 300 300
Wind_Speed
8 6 7 6 9 10 12 14 14 14 14 15 15 14 14 15 16 17 18 19 20 19 19 18 18 18 19 19 15 15 18 20 26 25 25 23 22 20 23 21 20 21 21
4 7 9 10 12 12 13 13 13 14 15 13 13 14 13 12 13 14 15 17 19 21 23 22 21 22 21 20 19 18 17 17 20 25 23 24 27 24 21 21 21 24 25
5 8 11 13 13 11 11 13 14 14 14 14 13 13 14 13 13 12 13 14 16 17 19 21 23 25 24 21 19 21 21 20 20 21 22 21 23 26 26 29 24 27 29
9 10 12 11 11 12 13 12 12 14 14 14 14 13 12 13 14 13 12 12 12 13 14 17 19 21 23 25 22 20 22 22 24 24 23 22 19 16 18 21 31 35 25
8 10 9 9 10 10 10 11 12 13 13 13 12 12 14 15 18 18 17 16 15 15 15 16 15 16 16 18 20 22 23 23 22 26 27 24 22 15 13 13 18 22 26
7 5 6 6 8 10 11 12 13 15 17 17 18 18 18 19 19 19 19 17 16 17 18 18 15 12 13 14 16 19 23 24 26 24 25 26 25 23 16 14 14 16 19
3 5 7 8 9 11 12 12 14 15 16 19 20 22 23 22 21 20 19 18 19 18 17 17 15 14 15 17 17 18 16 18 22 26 28 24 24 23 24 21 16 15 17
6 7 7 7 7 8 9 11 14 15 18 20 21 22 22 23 23 22 21 21 21 19 18 15 16 16 18 20 19 19 19 19 19 21 23 28 26 25 25 23 21 19 18
2 3 5 7 7 8 10 12 12 14 16 18 19 21 23 24 25 26 25 24 23 23 22 19 17 17 18 19 21 23 22 21 19 22 22 22 22 27 29 27 24 20 20
6 7 7 7 10 11 11 10 10 11 12 14 15 17 19 21 24 26 27 26 25 22 21 22 20 21 21 20 19 20 23 23 22 23 21 21 23 25 27 28 30 25 23
6 7 8 9 10 9 8 8 8 9 10 11 12 14 17 19 21 24 26 26 26 21 20 21 21 22 21 19 17 18 19 21 23 23 22 18 17 17 21 22 25 30 28
9 9 7 7 7 5 4 5 7 9 11 13 14 13 13 16 17 18 21 23 24 20 20 22 22 20 21 22 21 19 18 18 19 20 17 17 16 18 19 24 24 25 30
9 7 4 3 2 3 3 5 7 12 13 13 12 12 12 14 15 15 17 18 21 22 22 22 23 22 22 21 23 23 23 22 19 18 18 18 18 18 18 20 21 25 25
6 5 3 2 2 4 4 6 7 9 10 11 11 12 12 14 13 15 19 19 21 21 24 18 22 21 21 21 21 24 28 27 26 25 23 20 21 18 17 15 16 17 22
5 6 4 3 5 7 7 6 7 9 12 13 13 12 13 14 16 14 17 18 18 20 23 17 18 19 19 20 20 20 20 23 28 28 27 25 23 19 18 19 15 14 16
10 7 6 6 5 4 6 8 9 11 13 14 13 13 13 13 14 14 14 14 16 19 18 18 19 18 19 20 20 20 20 21 23 27 28 27 25 24 22 21 20 17 17
12 7 4 1 2 5 8 11 14 16 16 11 11 13 14 16 15 14 13 14 16 18 15 18 18 19 19 20 20 19 20 21 22 22 24 27 25 23 24 22 20 17 15
8 4 1 4 7 8 8 11 12 15 16 16 13 13 13 17 17 18 16 15 13 14 14 15 16 18 18 19 20 20 21 20 20 20 21 22 25 24 22 22 21 19 17
5 2 4 6 6 7 9 7 9 12 15 16 16 15 15 16 18 17 16 18 17 15 14 13 15 17 18 19 21 20 20 21 20 20 21 21 21 21 21 21 20 19 16
4 6 8 8 8 9 9 10 12 15 16 17 21 23 24 20 16 14 16 19 19 19 18 15 15 20 19 22 22 21 22 23 22 22 22 22 21 20 20 20 19 18 18
7 10 11 9 9 9 11 14 18 21 21 23 27 24 21 23 22 17 19 18 18 19 22 21 19 19 23 20 20 21 23 24 24 23 23 23 22 21 20 18 19 17 16
7 6 5 6 10 14 17 20 22 23 24 25 21 17 22 22 18 16 14 14 18 19 21 22 21 23 31 28 26 22 23 25 26 25 25 24 22 21 19 19 18 17 16
4 7 11 14 16 19 21 21 22 22 18 15 17 19 20 18 15 12 12 13 15 18 21 21 19 23 27 27 25 23 24 25 26 29 28 25 22 21 20 19 18 17 15
10 14 15 17 19 21 21 19 14 10 13 15 17 19 16 15 14 13 17 17 16 16 19 21 22 25 25 27 27 23 23 31 32 30 27 27 26 22 20 19 18 17 16
12 13 15 18 18 16 12 8 8 10 13 16 18 15 13 13 13 15 17 18 19 21 22 24 25 27 28 30 28 28 30 29 29 27 27 26 25 24 22 19 17 17 16
13 16 17 16 11 8 10 10 12 15 17 17 14 13 15 17 18 19 21 22 23 23 24 24 25 26 26 24 24 26 26 26 26 25 25 24 23 22 21 20 19 17 16
Wind_Direction
121 65 43 2 333 321 316 317 316 315 318 320 317 314 309 301 291 283 279 274 271 267 266 265 268 270 275 278 281 273 265 260 259 261 268 266 271 259 255 266 258 253 254
65 26 5 347 335 331 329 327 334 329 327 333 341 341 338 329 321 309 300 291 285 279 273 272 268 269 265 268 272 271 271 271 263 266 272 270 262 269 261 261 263 256 258
38 352 350 340 337 335 336 337 341 348 352 353 353 354 353 348 340 332 324 317 309 305 301 292 281 273 269 268 272 273 269 265 271 270 274 273 273 261 271 255 272 270 262
5 342 337 335 339 347 354 358 359 360 357 358 356 355 355 357 349 349 344 333 332 330 325 318 306 290 277 269 269 271 270 270 265 264 267 271 277 277 272 265 260 247 261
330 337 337 347 2 5 9 10 13 15 19 21 24 20 15 15 5 355 345 342 335 332 340 338 340 329 309 284 274 273 270 270 268 261 261 263 269 267 264 261 258 259 257
349 358 14 24 24 30 40 51 50 49 47 45 41 36 32 29 19 10 3 355 343 330 326 327 333 337 310 295 284 274 270 274 270 273 266 259 260 266 263 257 258 259 260
10 47 50 49 51 63 66 57 53 51 50 48 43 37 33 28 18 10 5 359 359 349 328 327 322 317 307 307 300 286 287 277 276 273 274 265 261 263 268 266 264 262 261
49 57 52 50 56 83 72 68 68 61 54 47 41 37 33 28 21 18 16 19 15 5 356 332 328 320 314 308 302 296 293 292 291 280 280 273 265 261 262 260 261 266 267
55 65 70 63 82 97 95 86 67 53 45 41 36 33 30 27 21 18 19 24 23 22 19 11 352 332 323 320 313 308 301 294 296 291 283 282 275 264 261 262 258 254 261
99 90 82 78 101 100 91 71 54 40 33 28 23 23 23 23 21 19 20 22 21 18 21 20 14 356 345 338 328 322 311 307 304 297 296 293 282 274 267 263 260 252 253
119 113 101 104 102 93 79 61 41 29 20 14 8 6 9 12 16 17 18 21 20 16 13 9 14 7 359 348 336 328 321 311 306 306 304 300 294 283 275 271 260 255 250
126 129 122 105 95 83 56 36 25 16 7 4 6 5 357 359 3 10 13 17 18 19 14 12 15 13 14 13 6 355 334 322 311 306 296 302 302 296 281 274 274 267 255
141 142 126 90 66 36 23 28 26 15 13 6 4 2 3 357 357 1 5 10 14 14 10 9 8 11 17 15 14 10 9 8 350 334 319 313 310 294 293 286 278 268 264
147 158 140 85 26 360 20 53 38 13 11 11 11 11 5 2 355 355 358 360 3 4 1 356 0 5 4 4 7 10 15 15 12 4 1 342 322 311 302 290 288 282 265
155 148 127 90 86 82 75 53 26 2 353 355 359 353 352 355 357 355 358 356 354 357 353 352 351 353 355 355 358 359 359 2 8 7 4 359 354 336 313 304 287 292 283
148 146 134 115 95 55 26 11 357 343 328 322 322 331 334 335 348 357 357 3 7 3 1 354 352 349 349 349 347 346 349 350 351 355 358 358 355 354 346 330 308 287 281
151 154 153 137 325 333 340 341 350 1 1 342 316 307 318 325 323 333 341 349 351 359 357 357 358 355 351 349 346 343 338 337 340 338 341 347 350 349 354 349 339 317 290
166 184 294 334 336 348 352 347 345 1 9 15 5 350 322 318 327 321 315 326 334 335 343 349 353 356 356 355 352 348 343 338 335 333 335 335 340 343 345 347 351 346 323
180 241 306 331 345 349 351 356 356 346 343 339 334 333 324 321 327 327 320 308 315 316 318 329 339 339 346 349 349 348 345 340 338 335 333 331 331 332 332 341 341 347 349
246 282 292 305 325 327 330 329 323 322 316 315 324 325 325 320 311 313 314 320 307 311 306 305 320 325 333 338 338 338 339 339 334 331 329 328 327 325 322 321 335 337 345
271 283 291 286 306 322 324 322 318 316 316 316 322 325 327 319 319 299 307 317 318 312 313 300 304 320 322 319 322 326 327 328 328 324 324 323 321 320 319 315 314 322 334
275 291 307 308 314 315 314 313 314 316 317 323 327 327 328 327 317 308 303 312 323 321 319 315 299 307 313 307 312 315 319 321 321 319 318 318 316 316 315 314 310 305 308
280 302 309 311 314 314 313 311 311 318 324 334 330 329 332 330 327 324 320 320 322 323 319 316 301 304 304 308 312 312 314 316 315 317 316 315 313 312 310 312 307 302 298
299 309 309 312 315 316 320 321 326 336 338 335 333 334 337 343 343 336 330 328 330 331 324 322 316 314 316 316 316 314 310 312 314 314 314 315 315 313 307 307 306 296 296
308 312 314 319 320 326 336 347 341 341 341 337 336 339 345 350 353 350 344 338 332 328 324 322 320 318 318 319 318 316 314 313 311 310 308 308 310 313 313 304 303 301 296
311 309 312 319 328 345 350 349 346 341 338 339 343 345 345 345 341 338 335 332 331 329 327 326 325 325 326 327 327 328 326 324 320 314 310 308 307 308 311 307 304 301 295